STARLINK-36328, 68096

Orbit data source: Space-Track

STARLINK-36328, 68096 is a payload satellite owned by SpaceX/Seattle (US) in LEO that was launched on Wed, 04 Mar 2026 UTC via an FALCON 9 launch vehicle from the Air Force Eastern Test Range (AFETR). Payload-class satellites include a variety of spacecraft equipped with specific instruments for various scientific and technological missions. These include communications satellites like Starlink; space stations such as the ISS; scientific satellites like the Hubble; Earth observation satellites from companies like Planet Labs, Umbra, and HawkEye 360; GPS; miniature CubeSats for education and research; and military/defense satellites.

Loading next visibility...
Identifier
68096, 2026-042AD
Orbit
LEO
Country
Flag of USUS
Related business
Manufacturer
SpaceX/Seattle
Mission
Operational Commercial Communications
Bus & Motor
STARLINK V2MO, Unknown motor
Mass
575 kg wet, ~530 kg dry
Launch date (UTC)
2026-03-04 (2 months ago)
Launch vehicle
FALCON 9
Launch site
Air Force Eastern Test Range (AFETR)
Object type
Payload
Rocket body
Debris
Shape & HBR
Box + 2 Pan, 17.7 m
Radar Cross Section
36.964 m²

Expand to show TLE details & history
Last TLE update: 7 hours ago

TLE from 7 hours ago
0 STARLINK-36328
1 68096U 26042AD  26132.16668980  .00056382  00000-0  16695-2 0  9994
2 68096  53.1600 243.8814 0001639  95.2199 264.9747 15.34359478  5834
Epoch: 2026-05-12T04:00Z
TLE epoch observation values (Epoch: 2026-05-12T04:00:01.998Z)
Latitude
0.06087°
Longitude
-46.02654°
Altitude
463.816 km
Speed
7.636 km/s
True Right ascension
16h 15m 42s
True Declination
0° 03' 38"
Sunlit
Object was in full shadow at epoch
Visualization orbit readout
Latitude
Unknown
Longitude
Unknown
Altitude
Unknown
Speed
Unknown
Apparent Right ascension
Unknown
Apparent Declination
Unknown
Sunlit
N/A
Visualization observer readout
Local Sidereal Time
19:10:28
Azimuth
Unknown
Elevation
Unknown
Doppler factor
Unknown
Orbital elements
Apogee altitude
464.202 km
Perigee altitude
461.959 km
Semi-major axis
6,841.218 km
Eccentricity
0.00016
Inclination
53.16°
RAAN
243.8814°
Arg. of periapsis
95.2199°
True anomaly
264.95599°
Mean anomaly
264.9747°
Eccentric anomaly
264.96535°
Mean motion
3.83569 °/min
Orbital period
93.86 mins
BSTAR
0.0016695
Loading maneuver chart data...
Computing Atmospheric mass density...
Loading historical data...
Loading historical data...
Loading historical data...
Loading historical data...
Loading historical data...
Loading historical data...
Loading historical data...

Documentation

Showing up to 5 results
|